Location: Newark
(25.6108°S, 54.5803°W)
Time: 21:20:18
(UTC+00:00)

Courier 1B - Pass Details

Date: 01 November 2020
Orbit: 962 x 1209 km, 28.3° (Epoch: 24 November)

Event Time Altitude Azimuth Distance (km) Brightness Sun altitude
Rises 03:10:42 0° 264° (W) 4,000 - -49.7°
Reaches altitude 10° 03:13:28 10° 262° (W) 3,069 - -49.8°
Maximum altitude 03:21:10 73° 177° (S) 1,247 - -49.8°
Drops below altitude 10° 03:29:04 10° 92° (E) 3,153 - -49.8°
Sets 03:31:57 0° 90° (E) 4,114 - -49.8°
